DW2738 Weather Reports


Display with metric or nautical units.
time (UTC)temp
F
wind
direction
speed
MPH
gust
MPH
rain 1hr
in
rain 24hr
in
rain mn
in
humidity
%
barometer
mb
20260902232944 73 257 3.0 3.0 0.00 0.03 0.03 97 1017.4
20260902232439 73 257 3.0 3.0 0.00 0.03 0.03 97 1017.3
20260902231938 73 257 3.0 3.0 0.00 0.03 0.03 97 1017.6
20260902231433 73 263 3.0 3.0 0.00 0.03 0.03 97 1017.2
20260902230928 73 251 3.0 3.0 0.00 0.03 0.03 97 1017.3
20260902230427 73 280 2.0 3.0 0.00 0.03 0.03 97 1017.2
20260902225922 73 258 2.0 3.0 0.00 0.03 0.03 97 1017.3
20260902225417 74 250 2.0 2.0 0.00 0.03 0.03 97 1017.2
20260902224916 73 261 2.0 5.0 0.00 0.03 0.03 97 1017.2
20260902224415 74 254 1.0 3.0 0.00 0.03 0.03 97 1017.6
20260902223913 74 287 2.0 3.0 0.00 0.03 0.03 97 1017.7
20260902223413 74 293 2.0 2.0 0.00 0.03 0.03 96 1018.0
20260902222908 74 265 2.0 3.0 0.00 0.03 0.03 96 1017.8
20260902222406 74 290 2.0 2.0 0.00 0.03 0.03 96 1017.7
20260902221905 74 270 2.0 3.0 0.00 0.03 0.03 96 1017.8
20260902221405 74 286 2.0 2.0 0.00 0.03 0.03 95 1017.6
20260902220900 74 230 3.0 3.0 0.00 0.03 0.03 95 1017.5
20260902220400 74 265 2.0 3.0 0.00 0.03 0.03 95 1017.6
20260902215855 74 262 2.0 4.0 0.00 0.03 0.03 95 1017.7
20260902215350 74 275 2.0 2.0 0.00 0.03 0.03 95 1017.7
20260902214846 75 258 2.0 3.0 0.00 0.03 0.03 94 1018.0
20260902214345 75 340 1.0 2.0 0.00 0.03 0.03 94 1018.0
20260902213840 75 270 1.0 4.0 0.00 0.03 0.03 94 1017.8
20260902213336 75 241 2.0 4.0 0.00 0.03 0.03 93 1018.1
20260902212834 75 304 0.0 4.0 0.00 0.03 0.03 93 1017.7
20260902212331 75 203 3.0 4.0 0.00 0.03 0.03 93 1017.9
20260902211827 75 315 2.0 5.0 0.00 0.03 0.03 94 1018.0
20260902211322 75 255 1.0 5.0 0.00 0.03 0.03 94 1017.9
20260902210818 75 180 0.0 5.0 0.00 0.03 0.03 95 1017.7
20260902210312 75 243 2.0 2.0 0.00 0.03 0.03 95 1017.8
20260902205810 75 265 2.0 5.0 0.00 0.03 0.03 95 1017.5
20260902205306 74 308 2.0 4.0 0.00 0.03 0.03 96 1017.5
20260902204800 75 263 1.0 3.0 0.00 0.03 0.03 96 1017.3
20260902204255 74 244 3.0 5.0 0.00 0.03 0.03 97 1017.3
20260902203751 75 270 0.0 4.0 0.00 0.03 0.03 97 1017.2
20260902203251 74 295 2.0 4.0 0.00 0.03 0.03 98 1017.2
20260902202745 74 230 3.0 3.0 0.00 0.03 0.03 99 1017.8
20260902202242 74 259 2.0 3.0 0.00 0.03 0.03 99 1017.6
20260902201738 74 254 1.0 5.0 0.00 0.03 0.03 99 1017.6
20260902201237 73 230 3.0 4.0 0.00 0.03 0.03 99 1017.5
20260902200733 73 234 1.0 3.0 0.00 0.03 0.03 99 1017.5
20260902200228 73 254 0.0 1.0 0.00 0.03 0.03 99 1017.8
20260902195724 73 255 2.0 2.0 0.00 0.03 0.03 99 1017.9
20260902195223 73 259 2.0 2.0 0.00 0.03 0.03 99 1017.8
20260902194723 73 264 2.0 3.0 0.00 0.03 0.03 99 1018.1
20260902194218 73 262 2.0 4.0 0.00 0.03 0.03 99 1017.9
20260902193713 74 270 0.0 0.0 0.00 0.03 0.03 99 1018.0
20260902193209 73 286 1.0 4.0 0.02 0.03 0.03 99 1018.2
20260902192707 74 273 3.0 3.0 0.02 0.03 0.03 98 1018.1
20260902192207 74 273 3.0 3.0 0.00 0.03 0.03 98 1017.9
20260902191701 74 273 3.0 3.0 0.02 0.03 0.03 98 1017.8
20260902191155 74 257 2.0 2.0 0.05 0.03 0.03 97 1017.6
20260902190651 75 270 2.0 2.0 0.05 0.02 0.02 97 1017.5
20260902190146 75 248 2.0 2.0 0.05 0.02 0.02 96 1017.4
20260902185641 75 237 2.0 2.0 0.07 0.02 0.02 96 1017.6
20260902185137 75 231 3.0 4.0 0.05 0.01 0.01 94 1018.0
20260902184632 76 243 0.0 2.0 0.00 0.00 0.00 93 1017.8
20260902184127 76 265 2.0 4.0 0.00 0.00 0.00 93 1018.1
20260902183623 76 245 2.0 2.0 0.00 0.00 0.00 93 1018.5
20260902183120 76 236 2.0 2.0 0.00 0.00 0.00 93 1018.4
20260902182616 77 234 0.0 2.0 0.00 0.00 0.00 94 1018.8
20260902182112 77 276 0.0 2.0 0.00 0.00 0.00 92 1018.8
20260902181608 77 270 0.0 2.0 0.00 0.00 0.00 92 1019.0
20260902181107 77 265 2.0 2.0 0.00 0.00 0.00 92 1019.1
20260902180607 77 270 1.0 1.0 0.00 0.00 0.00 92 1019.2
20260902175602 78 260 2.0 2.0 0.00 0.00 0.00 90 1019.0
20260902175058 78 260 2.0 2.0 0.00 0.00 0.00 90 1019.1
20260902174555 78 270 2.0 2.0 0.00 0.00 0.00 89 1019.2
20260902174050 79 259 3.0 3.0 0.00 0.00 0.00 87 1019.2
20260902173544 79 259 3.0 3.0 0.00 0.00 0.00 87 1019.3
20260902173039 79 266 3.0 3.0 0.00 0.00 0.00 87 1019.2
20260902172539 79 254 4.0 4.0 0.00 0.00 0.00 85 1019.1
20260902172034 79 262 2.0 4.0 0.00 0.00 0.00 84 1018.7
20260902171530 80 270 2.0 3.0 0.00 0.00 0.00 85 1018.6
20260902171025 80 334 2.0 4.0 0.00 0.00 0.00 85 1018.5
20260902170520 80 247 3.0 3.0 0.00 0.00 0.00 87 1018.5
20260902170016 80 210 2.0 5.0 0.00 0.00 0.00 85 1018.5
20260902165516 80 161 2.0 5.0 0.00 0.00 0.00 85 1018.5
20260902165010 80 256 0.0 4.0 0.00 0.00 0.00 84 1018.7
20260902164505 80 260 2.0 4.0 0.00 0.00 0.00 88 1018.7
20260902164004 79 166 4.0 5.0 0.00 0.00 0.00 88 1018.8
20260902163500 78 264 3.0 4.0 0.00 0.00 0.00 89 1018.7
20260902162957 78 270 2.0 3.0 0.00 0.00 0.00 88 1019.0
20260902162452 79 337 1.0 1.0 0.00 0.00 0.00 88 1018.8
20260902161947 78 255 5.0 5.0 0.00 0.00 0.00 86 1019.1
20260902161442 78 265 2.0 4.0 0.00 0.00 0.00 86 1018.9
20260902160938 78 204 4.0 4.0 0.00 0.00 0.00 88 1018.9
20260902160433 78 297 2.0 5.0 0.00 0.00 0.00 88 1018.9
20260902155931 77 295 2.0 3.0 0.00 0.00 0.00 91 1018.9
20260902155427 77 264 0.0 3.0 0.00 0.00 0.00 92 1019.1
20260902154920 77 232 0.0 2.0 0.00 0.00 0.00 92 1018.9
20260902154416 77 235 2.0 4.0 0.00 0.00 0.00 92 1018.9
20260902153915 76 213 3.0 3.0 0.00 0.00 0.00 94 1018.9
20260902153414 76 246 3.0 4.0 0.00 0.00 0.00 95 1018.9
20260902152910 75 240 2.0 3.0 0.00 0.00 0.00 95 1018.8
20260902152406 75 263 3.0 5.0 0.00 0.00 0.00 95 1018.7
20260902151901 76 232 3.0 4.0 0.00 0.00 0.00 95 1018.8
20260902151356 76 257 2.0 3.0 0.00 0.00 0.00 95 1018.9
20260902150851 76 259 2.0 5.0 0.00 0.00 0.00 94 1019.0
20260902150347 76 279 0.0 4.0 0.00 0.00 0.00 95 1019.0
20260902145846 76 254 2.0 2.0 0.00 0.00 0.00 96 1018.8
20260902145342 76 249 1.0 3.0 0.00 0.00 0.00 96 1019.1
20260902144837 75 270 1.0 2.0 0.00 0.00 0.00 97 1019.1
20260902144333 75 240 2.0 2.0 0.00 0.00 0.00 97 1019.2
20260902143827 75 324 2.0 2.0 0.00 0.00 0.00 98 1019.2
20260902143322 75 270 0.0 3.0 0.00 0.00 0.00 99 1019.0
20260902142818 74 261 2.0 3.0 0.00 0.00 0.00 99 1019.1
20260902142314 75 261 2.0 4.0 0.00 0.00 0.00 99 1019.1
20260902141809 74 265 2.0 3.0 0.00 0.00 0.00 99 1019.1
20260902141305 74 229 0.0 2.0 0.00 0.00 0.00 99 1018.8
20260902140804 74 238 3.0 3.0 0.00 0.00 0.00 99 1018.8
20260902140259 73 248 0.0 3.0 0.00 0.00 0.00 99 1018.8
20260902135758 74 290 2.0 2.0 0.00 0.00 0.00 99 1018.8
20260902135255 73 246 2.0 3.0 0.00 0.00 0.00 99 1018.9
20260902134754 73 263 3.0 3.0 0.00 0.00 0.00 99 1018.7
20260902134250 73 270 2.0 2.0 0.00 0.00 0.00 99 1018.7
20260902133745 73 237 2.0 3.0 0.00 0.00 0.00 99 1018.8
20260902133244 73 270 0.0 4.0 0.00 0.00 0.00 99 1018.7
20260902132739 73 297 2.0 4.0 0.00 0.00 0.00 99 1018.7
20260902132235 73 249 0.0 4.0 0.00 0.00 0.00 99 1018.5
20260902131730 73 262 1.0 5.0 0.00 0.00 0.00 99 1018.3
20260902131227 72 252 3.0 5.0 0.00 0.00 0.00 99 1018.3
20260902130726 73 246 1.0 4.0 0.00 0.00 0.00 99 1018.1
20260902130222 72 240 0.0 3.0 0.00 0.00 0.00 99 1018.4
20260902125717 72 283 3.0 5.0 0.00 0.00 0.00 99 1018.1
20260902125213 72 249 3.0 3.0 0.00 0.00 0.00 99 1018.2
20260902124710 72 270 2.0 3.0 0.00 0.00 0.00 99 1018.1
20260902124209 72 266 3.0 3.0 0.00 0.00 0.00 99 1018.4
20260902123705 72 274 2.0 3.0 0.00 0.00 0.00 99 1018.4
20260902123201 72 246 3.0 3.0 0.00 0.00 0.00 99 1018.4
20260902122654 72 144 2.0 3.0 0.00 0.00 0.00 99 1018.6
20260902122150 72 270 2.0 2.0 0.00 0.00 0.00 99 1018.2
20260902121644 72 270 2.0 4.0 0.00 0.00 0.00 99 1018.3
20260902121139 72 282 2.0 3.0 0.00 0.00 0.00 99 1018.4
20260902120635 72 270 2.0 3.0 0.00 0.00 0.00 99 1018.2
20260902120132 72 264 1.0 3.0 0.00 0.00 0.00 99 1018.3
20260902115626 72 254 5.0 5.0 0.00 0.00 0.00 99 1018.1
20260902115122 72 0 0.0 5.0 0.00 0.00 0.00 99 1018.1
20260902114618 72 257 2.0 3.0 0.00 0.00 0.00 99 1018.0
20260902114118 72 265 2.0 3.0 0.00 0.00 0.00 99 1018.3
20260902113613 72 251 2.0 3.0 0.00 0.00 0.00 99 1018.3
20260902113108 72 255 3.0 3.0 0.00 0.00 0.00 99 1018.1
20260902112603 72 258 2.0 4.0 0.00 0.00 0.00 99 1018.1
20260902112100 72 282 2.0 3.0 0.00 0.00 0.00 99 1018.0
20260902111556 72 260 2.0 2.0 0.00 0.00 0.00 99 1018.0
20260902111051 72 270 2.0 3.0 0.00 0.00 0.00 99 1017.8
20260902110547 72 258 2.0 2.0 0.00 0.00 0.00 99 1017.9
20260902110043 71 266 2.0 3.0 0.00 0.00 0.00 99 1017.8
20260902105537 71 261 2.0 3.0 0.00 0.00 0.00 99 1017.7
20260902105031 71 250 2.0 2.0 0.00 0.00 0.00 99 1017.7
20260902104528 71 254 2.0 3.0 0.00 0.00 0.00 99 1017.7
20260902104027 71 270 1.0 2.0 0.00 0.00 0.00 99 1017.6
20260902103523 71 217 2.0 2.0 0.00 0.00 0.00 99 1017.9
20260902103018 71 251 2.0 3.0 0.00 0.00 0.00 99 1017.5
20260902102515 71 286 2.0 3.0 0.00 0.00 0.00 99 1017.6
20260902102011 71 276 2.0 3.0 0.00 0.00 0.00 99 1017.7
20260902101506 71 270 1.0 2.0 0.00 0.00 0.00 99 1017.3
20260902101005 71 248 2.0 2.0 0.00 0.00 0.00 99 1017.3
20260902100500 71 287 2.0 3.0 0.00 0.00 0.00 99 1017.4
20260902100000 71 263 1.0 3.0 0.00 0.00 0.00 99 1017.3
20260902095454 71 270 1.0 3.0 0.00 0.00 0.00 99 1017.3
20260902094953 71 264 1.0 3.0 0.00 0.00 0.00 99 1017.5
20260902094449 71 270 2.0 2.0 0.00 0.00 0.00 99 1017.2
20260902093944 71 270 2.0 2.0 0.00 0.00 0.00 99 1017.4
20260902093439 71 261 0.0 2.0 0.00 0.00 0.00 99 1017.3
20260902092938 71 282 2.0 2.0 0.00 0.00 0.00 99 1017.2
20260902092434 71 276 2.0 2.0 0.00 0.00 0.00 99 1017.2
20260902091933 71 264 1.0 2.0 0.00 0.00 0.00 99 1017.3
20260902091429 71 264 1.0 2.0 0.00 0.00 0.00 99 1017.1
20260902090925 71 255 1.0 2.0 0.00 0.00 0.00 99 1017.2
20260902090426 71 243 2.0 2.0 0.00 0.00 0.00 99 1017.2
20260902085924 71 259 2.0 2.0 0.00 0.00 0.00 99 1017.1
20260902085420 71 248 2.0 3.0 0.00 0.00 0.00 99 1017.0
20260902084915 71 249 1.0 3.0 0.00 0.00 0.00 99 1017.0
20260902084411 71 257 2.0 3.0 0.00 0.00 0.00 99 1016.8
20260902083906 71 276 2.0 3.0 0.00 0.00 0.00 99 1016.9
20260902083401 71 251 2.0 2.0 0.00 0.00 0.00 99 1016.9
20260902082856 71 270 1.0 3.0 0.02 0.00 0.00 99 1017.1
20260902082352 71 254 2.0 2.0 0.02 0.00 0.00 99 1016.9
20260902081848 71 270 1.0 2.0 0.00 0.00 0.00 99 1016.9
20260902081344 71 261 2.0 2.0 0.00 0.00 0.00 99 1017.0
20260902080838 71 270 1.0 2.0 0.00 0.00 0.00 99 1017.3
20260902080335 71 258 2.0 2.0 0.00 0.00 0.00 99 1017.1
20260902075834 71 259 2.0 2.0 0.00 0.00 0.00 99 1016.7
20260902075331 71 257 1.0 3.0 0.00 0.00 0.00 99 1016.6
20260902074825 71 257 1.0 3.0 0.00 0.00 0.00 99 1016.9
20260902074316 71 233 0.0 3.0 0.00 0.00 0.00 99 1016.7
20260902073816 71 210 2.0 3.0 0.00 0.00 0.00 99 1016.6
20260902073312 71 264 2.0 2.0 0.00 0.00 0.00 99 1016.5
20260902072808 71 261 2.0 2.0 0.00 0.00 0.00 99 1016.6
20260902072308 71 257 2.0 2.0 0.00 0.00 0.00 99 1016.6
20260902071800 71 278 1.0 3.0 0.00 0.00 0.00 99 1016.4
20260902071254 71 282 2.0 2.0 0.00 0.00 0.00 99 1016.3
20260902070751 71 264 1.0 2.0 0.00 0.00 0.00 99 1016.3
20260902070250 71 264 2.0 2.0 0.00 0.00 0.00 99 1016.2
20260902065749 71 276 1.0 2.0 0.00 0.00 0.00 99 1016.4
20260902065244 71 243 2.0 3.0 0.00 0.00 0.00 99 1016.3
20260902064740 71 261 2.0 3.0 0.00 0.00 0.00 99 1016.5
20260902064236 71 258 2.0 2.0 0.00 0.00 0.00 99 1016.3
20260902063731 71 270 1.0 2.0 0.00 0.00 0.00 99 1016.4
20260902063226 71 254 2.0 2.0 0.00 0.00 0.00 99 1016.1
20260902062725 71 234 0.0 2.0 0.00 0.00 0.00 99 1016.1
20260902062221 71 264 1.0 2.0 0.00 0.00 0.00 99 1016.5
20260902061719 71 253 2.0 2.0 0.00 0.00 0.00 99 1016.4
20260902061215 71 259 2.0 2.0 0.00 0.00 0.00 99 1016.4
20260902060712 71 270 1.0 1.0 0.00 0.00 0.00 99 1016.4
20260902060207 71 276 1.0 2.0 0.00 0.00 0.00 99 1016.5
20260902055703 70 261 0.0 1.0 0.00 0.00 0.00 99 1016.5
20260902055159 71 258 2.0 3.0 0.00 0.00 0.00 99 1016.4
20260902054654 70 255 2.0 2.0 0.00 0.00 0.00 99 1016.7
20260902054149 70 246 2.0 2.0 0.00 0.00 0.00 99 1016.2
20260902053645 70 270 0.0 2.0 0.00 0.00 0.00 99 1016.6
20260902053145 70 278 1.0 3.0 0.00 0.00 0.00 99 1016.5
20260902052644 70 278 0.0 2.0 0.00 0.00 0.00 99 1016.7
20260902052140 70 261 0.0 3.0 0.00 0.00 0.00 99 1016.6
20260902051638 70 233 3.0 3.0 0.00 0.00 0.00 99 1016.6
20260902051133 70 264 2.0 2.0 0.00 0.00 0.00 99 1016.5
20260902050628 70 221 2.0 3.0 0.00 0.00 0.00 99 1016.3
20260902050123 70 270 0.0 1.0 0.00 0.00 0.00 99 1016.4
20260902045618 70 279 0.0 2.0 0.00 0.00 0.00 99 1016.5
20260902045115 70 264 0.0 2.0 0.00 0.00 0.00 99 1016.3
20260902044614 70 246 0.0 1.0 0.00 0.00 0.00 99 1016.2
20260902044110 70 270 1.0 2.0 0.00 0.00 0.00 99 1016.2
20260902043605 70 283 1.0 2.0 0.00 0.00 0.00 99 1016.2
20260902043100 70 229 0.0 2.0 0.00 0.00 0.00 99 1016.0
20260902042600 70 240 1.0 2.0 0.00 0.00 0.00 99 1016.1
20260902042055 70 286 2.0 2.0 0.00 0.00 0.00 99 1016.1
20260902041554 70 254 3.0 3.0 0.00 0.00 0.00 99 1016.2
20260902041049 70 243 0.0 2.0 0.00 0.00 0.00 99 1016.0
20260902040544 70 270 1.0 2.0 0.00 0.00 0.00 99 1015.7
20260902040039 70 262 3.0 3.0 0.00 0.00 0.00 99 1015.8
20260902035537 70 240 2.0 2.0 0.00 0.07 0.07 99 1015.6
20260902035033 70 247 2.0 2.0 0.00 0.07 0.07 99 1015.6
20260902034532 70 243 0.0 3.0 0.00 0.07 0.07 99 1015.5
20260902034031 71 262 3.0 3.0 0.00 0.07 0.07 99 1015.7
20260902033530 70 257 4.0 4.0 0.00 0.07 0.07 99 1015.6
20260902033026 70 251 3.0 3.0 0.00 0.07 0.07 99 1015.7
20260902032524 70 255 3.0 3.0 0.00 0.07 0.07 99 1015.9
20260902032019 70 255 3.0 3.0 0.00 0.07 0.07 99 1015.8
20260902031514 70 270 3.0 3.0 0.00 0.07 0.07 99 1015.8
20260902031010 70 244 3.0 4.0 0.00 0.07 0.07 99 1015.8
20260902030505 71 180 2.0 2.0 0.00 0.07 0.07 99 1015.7
20260902030004 70 262 2.0 3.0 0.00 0.07 0.07 99 1015.8
20260902025459 71 245 2.0 4.0 0.00 0.07 0.07 99 1015.5
20260902024954 71 270 2.0 3.0 0.00 0.07 0.07 99 1015.4
20260902024449 71 240 3.0 4.0 0.00 0.07 0.07 99 1015.5
20260902023944 71 251 2.0 3.0 0.00 0.07 0.07 99 1015.7
20260902023440 71 213 3.0 4.0 0.00 0.07 0.07 99 1015.3
20260902022939 72 306 0.0 6.0 0.00 0.07 0.07 99 1015.4
20260902022434 72 233 0.0 3.0 0.00 0.07 0.07 99 1015.7
20260902021930 72 262 3.0 3.0 0.02 0.07 0.07 99 1016.1
20260902021425 71 270 1.0 3.0 0.02 0.07 0.07 99 1016.6
20260902020921 72 261 2.0 6.0 0.00 0.07 0.07 99 1016.6
20260902020417 72 204 5.0 6.0 0.02 0.07 0.07 99 1016.4
20260902015912 73 213 3.0 3.0 0.26 0.07 0.07 99 1017.1
20260902015408 74 334 3.0 5.0 0.31 0.06 0.06 99 1017.1
20260902014903 76 279 0.0 6.0 0.09 0.02 0.02 99 1016.7
20260902014400 78 165 1.0 5.0 0.02 0.00 0.00 99 1016.0
20260902013858 78 190 0.0 0.0 0.00 0.00 0.00 98 1014.6
20260902013354 78 260 2.0 2.0 0.00 0.00 0.00 97 1013.3
20260902012849 78 260 2.0 2.0 0.00 0.00 0.00 97 1012.9
20260902012345 78 260 2.0 2.0 0.00 0.00 0.00 97 1012.8
20260902011841 78 260 2.0 2.0 0.00 0.00 0.00 97 1013.1
20260902011335 78 260 2.0 2.0 0.00 0.00 0.00 97 1012.8
20260902010835 78 260 2.0 2.0 0.00 0.00 0.00 97 1012.7
20260902010330 78 260 2.0 2.0 0.00 0.00 0.00 97 1012.3
20260902005829 78 260 2.0 2.0 0.00 0.00 0.00 97 1012.6
20260902005323 78 260 2.0 2.0 0.00 0.00 0.00 97 1012.2
20260902004819 78 260 2.0 2.0 0.00 0.00 0.00 97 1012.5
20260902004313 78 260 2.0 2.0 0.00 0.00 0.00 97 1012.1
20260902003808 78 260 2.0 2.0 0.00 0.00 0.00 97 1012.5
20260902003303 80 260 2.0 2.0 0.00 0.00 0.00 96 1012.6
20260902002759 80 260 2.0 2.0 0.00 0.00 0.00 96 1012.6
20260902002259 80 260 2.0 2.0 0.00 0.00 0.00 96 1012.7
20260902001754 80 260 2.0 2.0 0.00 0.00 0.00 96 1012.7
20260902001249 80 260 2.0 2.0 0.00 0.00 0.00 96 1012.8
20260902000743 80 260 2.0 2.0 0.00 0.00 0.00 96 1012.8
20260902000241 80 264 2.0 2.0 0.00 0.00 0.00 96 1012.8
20260901235733 80 260 2.0 2.0 0.00 0.00 0.00 95 1012.5
20260901235228 80 280 2.0 2.0 0.00 0.00 0.00 95 1012.4
20260901234728 80 280 2.0 2.0 0.00 0.00 0.00 95 1012.6
20260901234227 80 280 2.0 2.0 0.00 0.00 0.00 95 1012.6
20260901233722 80 258 2.0 2.0 0.00 0.00 0.00 94 1012.7